Location: El Álamo
(40.2307°N, 3.9945°W)
Time: 04:33:15
(UTC+00:00)

Meteor 1-27 Rocket - Pass Details

Date: 19 May 2025
Orbit: 830 x 908 km, 81.3° (Epoch: 23 June)

Event Time Altitude Azimuth Distance (km) Brightness Sun altitude
Exits shadow 22:30:55 42° 86° (E) 1,188 4.2 -25.3°
Drops below altitude 10° 22:35:54 10° 23° (NNE) 2,460 6.6 -25.7°
Sets 22:38:24 0° 17° (NNE) 3,392 7.5 -25.9°
